Location: Unspecified
(22.6800°N, 112.2000°E)
Time: 20:30:36
(UTC+08:00)

Vanguard 2 Rocket - Visible Passes

Search period start: 21 September 2021 00:00
Search period end: 01 October 2021 00:00
Orbit: 556 x 3324 km, 32.9° (Epoch: 20 September)

Date Brightness Start Highest point End Pass type
(mag) Time Alt. Az. Time Alt. Az. Time Alt. Az.
21 Sep 9.3 19:23:26 10° WNW 19:35:49 62° NNE 19:49:39 22° E visible
21 Sep 9.3 21:38:12 10° WNW 21:54:47 85° SSW 21:55:24 84° S visible
21 Sep 10.6 23:55:38 10° WNW 00:01:10 23° W 00:01:10 23° W visible
22 Sep 9.2 18:23:34 10° WNW 18:33:54 55° N 18:51:14 10° E visible
22 Sep 9.2 20:37:43 10° WNW 20:52:21 82° NNE 20:58:44 54° ESE visible
22 Sep 9.9 22:53:35 10° WNW 23:04:30 44° W 23:04:30 44° W visible
23 Sep 9.2 19:37:39 10° WNW 19:50:11 70° NNE 20:02:08 29° E visible
23 Sep 9.4 21:52:23 10° WNW 22:07:55 69° SW 22:07:55 69° SW visible
24 Sep 10.8 00:11:11 10° W 00:13:41 15° W 00:13:41 15° W visible
24 Sep 9.1 18:37:52 10° WNW 18:48:24 60° NNE 19:05:38 11° E visible
24 Sep 9.2 20:51:50 10° WNW 21:06:21 83° SSW 21:11:25 60° SE visible
24 Sep 10.2 23:08:24 10° W 23:17:11 32° WSW 23:17:11 32° WSW visible
25 Sep 9.1 19:51:45 10° WNW 20:04:20 83° NNE 20:15:00 34° ESE visible
25 Sep 9.7 22:06:47 10° WNW 22:20:47 52° SW 22:20:47 52° SW visible
26 Sep 8.9 18:52:02 10° WNW 19:02:41 69° NNE 19:18:40 15° ESE visible
26 Sep 9.3 21:06:02 10° WNW 21:20:15 67° SSW 21:24:28 57° SSE visible
26 Sep 10.5 23:24:01 10° W 23:30:16 22° WSW 23:30:16 22° WSW visible
27 Sep 9.1 20:05:51 10° WNW 20:18:21 81° SSW 20:28:16 36° SE visible
27 Sep 10.0 22:21:41 10° W 22:34:04 38° SW 22:34:04 38° SW visible
28 Sep 8.9 19:06:07 10° WNW 19:16:48 84° NNE 19:32:10 17° ESE visible
28 Sep 9.6 21:20:29 10° WNW 21:34:11 50° SSW 21:37:59 46° S visible
28 Sep 10.8 23:41:16 10° WSW 23:43:48 13° WSW 23:43:48 13° WSW visible
29 Sep 9.3 20:20:04 10° WNW 20:32:19 63° SSW 20:42:01 34° SE visible
29 Sep 10.4 22:37:26 10° W 22:47:51 26° SW 22:47:51 26° SW visible
30 Sep 8.9 19:20:13 10° WNW 19:30:49 78° SSW 19:46:11 16° SE visible
30 Sep 10.0 21:35:29 10° W 21:48:14 36° SW 21:52:02 33° SSW visible
